Location: Gerlach
(40.6516°N, 119.3568°W)
Time: 02:19:36
(UTC-08:00)

Vanguard 2 Rocket - Visible Passes

Search period start: 23 February 2024 00:00
Search period end: 04 March 2024 00:00
Orbit: 554 x 3310 km, 32.9° (Epoch: 22 February)

Date Brightness Start Highest point End Pass type
(mag) Time Alt. Az. Time Alt. Az. Time Alt. Az.
23 Feb 9.8 18:19:23 10° W 18:34:11 60° SSW 18:53:50 10° ESE visible
23 Feb 10.2 20:35:01 10° W 20:50:54 38° SSW 21:01:06 25° S visible
23 Feb 10.8 22:58:04 10° WSW 23:05:52 14° SW 23:06:46 13° SW visible
24 Feb 10.1 19:31:41 10° W 19:47:08 46° SSW 20:03:18 15° SE visible
24 Feb 10.6 21:50:16 10° W 22:02:54 22° SW 22:08:58 19° SSW visible
25 Feb 9.9 18:29:01 10° W 18:43:17 53° SSW 19:02:22 10° SE visible
25 Feb 10.5 20:45:17 10° W 20:59:34 30° SW 21:11:15 17° S visible
26 Feb 10.3 19:41:37 10° W 19:56:00 37° SSW 20:13:17 10° SSE visible
26 Feb 10.9 22:03:10 10° WSW 22:11:25 14° SW 22:19:19 10° SSW visible
27 Feb 10.1 18:38:47 10° W 18:52:20 45° SSW 19:10:30 10° SE visible
27 Feb 10.8 20:56:19 10° W 21:08:15 22° SW 21:21:15 10° S visible
28 Feb 10.6 19:51:57 10° W 20:04:51 29° SW 20:20:18 10° SSE visible
29 Feb 10.3 18:48:47 10° W 19:01:22 36° SSW 19:18:06 10° SSE visible
29 Feb 11.0 21:09:16 10° WSW 21:17:00 14° SW 21:25:16 10° SSW visible
01 Mar 10.1 17:46:22 10° W 17:57:58 42° SSW 18:14:58 10° SE visible
01 Mar 10.8 20:03:05 10° WSW 20:13:45 21° SW 20:26:14 10° S visible
02 Mar 10.6 18:59:12 10° W 19:10:26 27° SSW 19:24:57 10° SSE visible
03 Mar 10.4 17:56:27 10° W 18:07:10 33° SSW 18:22:27 10° SSE visible
03 Mar 11.1 20:16:24 10° WSW 20:22:45 13° SW 20:29:43 10° SSW visible
